DW6794 Weather Reports


Display with metric or nautical units.
time (UTC)temp
F
wind
direction
speed
MPH
gust
MPH
rain 1hr
in
rain 24hr
in
rain mn
in
humidity
%
barometer
mb
20140923222354 75 79 5.0 7.0 0.00 0.00 0.00 43 1019.8
20140923221354 75 94 5.0 8.0 0.00 0.00 0.00 43 1019.8
20140923220354 75 72 5.0 7.0 0.00 0.00 0.00 43 1019.8
20140923214354 76 67 6.0 12.0 0.00 0.00 0.00 43 1019.8
20140923213354 76 60 0.0 1.0 0.00 0.00 0.00 44 1019.7
20140923212354 75 60 1.0 8.0 0.00 0.00 0.00 45 1019.7
20140923211355 76 91 6.0 8.0 0.00 0.00 0.00 46 1019.9
20140923205355 76 85 6.0 12.0 0.00 0.00 0.00 46 1020.0
20140923204355 76 86 6.0 10.0 0.00 0.00 0.00 46 1020.1
20140923203354 76 61 3.0 10.0 0.00 0.00 0.00 46 1020.1
20140923202354 76 92 1.0 6.0 0.00 0.00 0.00 47 1020.1
20140923200355 76 63 4.0 8.0 0.00 0.00 0.00 49 1020.2
20140923195354 75 5 1.0 3.0 0.00 0.00 0.00 50 1020.2
20140923194354 75 25 0.0 1.0 0.00 0.00 0.00 52 1020.3
20140923193355 74 68 0.0 0.0 0.00 0.00 0.00 54 1020.5
20140923192354 73 68 0.0 0.0 0.00 0.00 0.00 54 1020.6
20140923191354 74 68 0.0 3.0 0.00 0.00 0.00 54 1020.7
20140923190355 74 68 2.0 10.0 0.00 0.00 0.00 53 1020.8
20140923185354 74 64 3.0 7.0 0.00 0.00 0.00 54 1020.8
20140923184355 74 69 4.0 10.0 0.00 0.00 0.00 54 1020.9
20140923183355 74 74 2.0 3.0 0.00 0.00 0.00 55 1021.0
20140923182354 74 264 1.0 6.0 0.00 0.00 0.00 57 1021.1
20140923181355 74 185 0.0 1.0 0.00 0.00 0.00 59 1021.2
20140923180355 73 244 0.0 1.0 0.00 0.00 0.00 59 1021.2
20140923175354 73 269 0.0 1.0 0.00 0.00 0.00 61 1021.2
20140923174355 72 89 0.0 1.0 0.00 0.00 0.00 62 1021.4
20140923172355 72 101 3.0 7.0 0.00 0.00 0.00 61 1021.7
20140923171355 71 124 0.0 8.0 0.00 0.00 0.00 63 1021.7
20140923165355 70 107 4.0 6.0 0.00 0.00 0.00 64 1021.8
20140923164356 69 108 1.0 6.0 0.00 0.00 0.00 66 1021.8
20140923163355 69 191 0.0 0.0 0.00 0.00 0.00 69 1021.8
20140923162355 68 128 0.0 0.0 0.00 0.00 0.00 70 1021.9
20140923161355 67 128 0.0 0.0 0.00 0.00 0.00 71 1022.0
20140923160356 66 140 0.0 0.0 0.00 0.00 0.00 72 1022.2
20140923155355 66 153 0.0 0.0 0.00 0.00 0.00 74 1022.3
20140923154355 65 225 0.0 0.0 0.00 0.00 0.00 76 1022.4
20140923153355 64 225 0.0 0.0 0.00 0.00 0.00 77 1022.2
20140923151355 62 233 0.0 0.0 0.00 0.00 0.00 78 1022.3
20140923150355 61 153 0.0 0.0 0.00 0.00 0.00 79 1022.5
20140923145355 60 142 0.0 0.0 0.00 0.00 0.00 80 1022.5
20140923144356 60 82 0.0 0.0 0.00 0.00 0.00 81 1022.5
20140923143355 59 82 0.0 0.0 0.00 0.00 0.00 81 1022.5
20140923142355 58 82 0.0 0.0 0.00 0.00 0.00 82 1022.5
20140923141356 57 82 0.0 0.0 0.00 0.00 0.00 83 1022.5
20140923140355 56 82 0.0 0.0 0.00 0.00 0.00 83 1022.5
20140923135356 55 82 0.0 0.0 0.00 0.00 0.00 84 1022.5
20140923132356 53 79 0.0 0.0 0.00 0.00 0.00 85 1022.2
20140923131356 52 79 0.0 0.0 0.00 0.00 0.00 86 1021.9
20140923130355 51 79 0.0 0.0 0.00 0.00 0.00 86 1021.9
20140923125355 50 49 0.0 0.0 0.00 0.00 0.00 86 1021.9
20140923124356 48 49 0.0 0.0 0.00 0.00 0.00 86 1021.9
20140923123356 46 49 0.0 0.0 0.00 0.00 0.00 86 1021.6
20140923122356 44 49 0.0 0.0 0.00 0.00 0.00 86 1021.6
20140923121355 43 49 0.0 0.0 0.00 0.00 0.00 85 1021.7
20140923120356 42 49 0.0 0.0 0.00 0.00 0.00 85 1021.5
20140923115356 41 49 0.0 0.0 0.00 0.00 0.00 84 1021.6
20140923114356 41 49 0.0 0.0 0.00 0.00 0.00 84 1021.5
20140923113356 41 49 0.0 0.0 0.00 0.00 0.00 84 1021.5
20140923112356 42 49 0.0 0.0 0.00 0.00 0.00 84 1021.4
20140923110356 42 49 0.0 0.0 0.00 0.00 0.00 84 1021.4
20140923105356 42 49 0.0 0.0 0.00 0.00 0.00 84 1021.4
20140923104356 42 49 0.0 0.0 0.00 0.00 0.00 84 1021.1
20140923103357 43 49 0.0 0.0 0.00 0.00 0.00 84 1021.0
20140923102356 43 49 0.0 0.0 0.00 0.00 0.00 84 1021.0
20140923101356 43 49 0.0 0.0 0.00 0.00 0.00 84 1020.9
20140923100356 43 49 0.0 0.0 0.00 0.00 0.00 84 1020.6
20140923095356 43 49 0.0 0.0 0.00 0.00 0.00 83 1020.7
20140923093356 44 49 0.0 0.0 0.00 0.00 0.00 83 1020.8
20140923092357 44 49 0.0 0.0 0.00 0.00 0.00 84 1020.8
20140923090356 45 49 0.0 0.0 0.00 0.00 0.00 83 1020.6
20140923085357 45 49 0.0 0.0 0.00 0.00 0.00 83 1020.7
20140923084356 45 49 0.0 0.0 0.00 0.00 0.00 83 1020.6
20140923083356 45 49 0.0 0.0 0.00 0.00 0.00 83 1020.8
20140923082357 45 49 0.0 0.0 0.00 0.00 0.00 83 1020.7
20140923081357 45 49 0.0 0.0 0.00 0.00 0.00 83 1020.8
20140923080357 45 49 0.0 0.0 0.00 0.00 0.00 82 1020.5
20140923075357 45 49 0.0 0.0 0.00 0.00 0.00 82 1020.3
20140923074357 45 49 0.0 0.0 0.00 0.00 0.00 82 1020.3
20140923073357 45 49 0.0 0.0 0.00 0.00 0.00 82 1020.3
20140923072357 45 49 0.0 0.0 0.00 0.00 0.00 81 1020.4
20140923071357 45 49 0.0 0.0 0.00 0.00 0.00 81 1020.3
20140923070357 46 49 0.0 0.0 0.00 0.00 0.00 81 1020.4
20140923064357 45 49 0.0 0.0 0.00 0.00 0.00 80 1020.7
20140923063357 45 49 0.0 0.0 0.00 0.00 0.00 80 1020.8
20140923062357 46 49 0.0 0.0 0.00 0.00 0.00 80 1020.8
20140923061357 46 49 0.0 0.0 0.00 0.00 0.00 80 1020.8
20140923060357 46 49 0.0 0.0 0.00 0.00 0.00 80 1020.7
20140923053357 46 49 0.0 0.0 0.00 0.00 0.00 79 1020.4
20140923052358 47 49 0.0 0.0 0.00 0.00 0.00 79 1020.4
20140923051358 47 49 0.0 0.0 0.00 0.00 0.00 79 1020.2
20140923050358 47 49 0.0 0.0 0.00 0.00 0.00 79 1020.2
20140923044357 47 49 0.0 0.0 0.00 0.00 0.00 78 1020.3
20140923041357 48 49 0.0 0.0 0.00 0.00 0.00 77 1020.6
20140923040357 48 49 0.0 0.0 0.00 0.00 0.00 77 1020.4
20140923035357 49 49 0.0 0.0 0.00 0.00 0.00 77 1020.4
20140923034357 49 49 0.0 0.0 0.00 0.00 0.00 77 1020.5
20140923033358 49 49 0.0 0.0 0.00 0.00 0.00 76 1020.3
20140923030357 50 49 0.0 0.0 0.00 0.00 0.00 76 1020.3
20140923025358 50 49 0.0 0.0 0.00 0.00 0.00 73 1020.0
20140923024358 50 49 0.0 0.0 0.00 0.00 0.00 72 1020.0
20140923023358 50 49 0.0 0.0 0.00 0.00 0.00 73 1019.9
20140923022358 50 49 0.0 0.0 0.00 0.00 0.00 73 1019.9
20140923020358 51 49 0.0 0.0 0.00 0.00 0.00 71 1019.5
20140923014357 53 49 0.0 0.0 0.00 0.00 0.00 69 1019.4
20140923013357 53 49 0.0 0.0 0.00 0.00 0.00 68 1019.3
20140923012358 54 49 0.0 0.0 0.00 0.00 0.00 66 1019.3
20140923010358 55 49 0.0 0.0 0.00 0.00 0.00 64 1018.8
20140923005357 56 49 0.0 0.0 0.00 0.00 0.00 62 1018.7
20140923004358 57 49 0.0 0.0 0.00 0.00 0.00 61 1018.4
20140923003358 58 49 0.0 0.0 0.00 0.00 0.00 58 1018.3
20140923002359 59 49 0.0 0.0 0.00 0.00 0.00 58 1018.2
20140923000358 61 49 0.0 0.0 0.00 0.00 0.00 56 1017.7
20140922235358 62 49 0.0 0.0 0.00 0.00 0.00 55 1017.6
20140922234358 63 49 0.0 0.0 0.00 0.00 0.00 54 1017.6
20140922232359 66 49 0.0 0.0 0.00 0.00 0.00 53 1017.1
20140922231358 67 49 0.0 0.0 0.00 0.00 0.00 52 1017.0
20140922230358 68 49 0.0 0.0 0.00 0.00 0.00 52 1017.0
20140922223358 69 49 0.0 0.0 0.00 0.00 0.00 50 1016.8